This demonstration page uses our WeatherBlox Daily Observations layout. Learn more.

Left ArrowRight Arrow

39.29038, -76.61219

Hourly Observations for January 5, 2017

Temp ( °F °C ) Dew Point ( °F °C ) Humidity (%) Winds ( mph kmh ) Pressure ( in mb ) Visibility ( mi km ) Precip ( " mm )
12:54 am 00:54 undefined 34 1.1 8 -13.3 34 34 undefined N/A 29.88 1012 N/A 0.00 0.00
1:54 am 01:54 undefined 33 0.6 9 -12.8 36 36 undefined N/A 29.88 1012 N/A 0.00 0.00
2:54 am 02:54 undefined 32 0 8 -13.3 36 36 undefined N/A 29.92 1013 N/A 0.00 0.00
3:54 am 03:54 undefined 31 -0.6 10 -12.2 42 42 undefined N/A 29.94 1014 N/A 0.00 0.00
4:54 am 04:54 undefined 31 -0.6 10 -12.2 42 42 undefined N/A 29.96 1015 N/A 0.00 0.00
5:54 am 05:54 undefined 31 -0.6 9 -12.8 40 40 undefined N/A 29.95 1014 N/A 0.00 0.00
6:54 am 06:54 undefined 31 -0.6 10 -12.2 42 42 undefined N/A 30.00 1016 N/A 0.00 0.00
7:54 am 07:54 undefined 31 -0.6 9 -12.8 40 40 undefined N/A 30.02 1017 N/A 0.00 0.00
8:54 am 08:54 undefined 32 0 9 -12.8 38 38 undefined N/A 30.05 1018 N/A 0.00 0.00
9:54 am 09:54 undefined 32 0 8 -13.3 36 36 undefined N/A 30.05 1018 N/A 0.00 0.00
10:54 am 10:54 undefined 34 1.1 9 -12.8 35 35 undefined N/A 30.05 1018 N/A 0.00 0.00
11:54 am 11:54 undefined 35 1.7 9 -12.8 34 34 undefined N/A 30.03 1017 N/A 0.00 0.00
12:54 pm 12:54 undefined 36 2.2 7 -13.9 30 30 undefined N/A 29.98 1015 N/A 0.00 0.00
1:54 pm 13:54 undefined 37 2.8 8 -13.3 30 30 undefined N/A 29.97 1015 N/A 0.00 0.00
2:54 pm 14:54 undefined 35 1.7 14 -10 42 42 undefined N/A 29.95 1014 N/A 0.00 0.00
3:54 pm 15:54 undefined 34 1.1 19 -7.2 54 54 undefined N/A 29.96 1015 N/A 0.00 0.00
4:54 pm 16:54 undefined 34 1.1 21 -6.1 59 59 undefined N/A 29.97 1015 N/A 0.00 0.00
5:54 pm 17:54 undefined 34 1.1 23 -5 64 64 undefined N/A 29.96 1015 N/A 0.00 0.00
6:54 pm 18:54 undefined 33 0.6 26 -3.3 75 75 undefined N/A 29.96 1015 N/A 0.00 0.00
7:54 pm 19:54 undefined 33 0.6 26 -3.3 75 75 undefined N/A 29.97 1015 N/A 0.00 0.00
8:54 pm 20:54 undefined 34 1.1 24 -4.4 67 67 undefined N/A 29.97 1015 N/A 0.00 0.00
9:54 pm 21:54 undefined 34 1.1 26 -3.3 73 73 undefined N/A 29.96 1014 N/A 0.00 0.00
10:54 pm 22:54 undefined 33 0.6 27 -2.8 78 78 undefined N/A 29.96 1014 N/A 0.00 0.00
11:54 pm 23:54 undefined 33 0.6 27 -2.8 78 78 undefined N/A 29.93 1014 N/A 0.00 0.00

Powered by AerisWeather